Regional Weather Roundup
Issued by NWS

Home | Current Version | Previous Version | Graphics & Text | Print | Product List | Glossary On
Versions: 1 2 3 4 5 6 7 8 9 10 11 12 13 14 15 16 17 18 19 20 21 22 23 24 25 26 27 28 29 30 31 32 33 34 35 36 37 38 39 40 41 42 43 44 45 46 47 48 49 50
000
ASUS43 KFSD 240810
RWRSD

WEATHER ROUNDUP FOR SOUTH DAKOTA
NATIONAL WEATHER SERVICE SIOUX FALLS SD
200 AM CST TUE JAN 24 2017

NOTE: "FAIR" INDICATES FEW OR NO CLOUDS BELOW 12,000 FEET WITH NO
SIGNIFICANT WEATHER AND/OR OBSTRUCTIONS TO VISIBILITY.


SDZ001>005-009-010-012>017-240900-
NORTHWEST AND NORTH CENTRAL SOUTH DAKOTA

CITY           SKY/WX    TMP DP  RH WIND       PRES   REMARKS
BUFFALO          N/A     23  20  88 NW9       29.71R WCI  13
FAITH            N/A     25  24  96 N8        29.77R WCI  16
MOBRIDGE       CLOUDY    28  24  85 NE8       29.76F WCI  20
$$

SDZ012>016-024>037-041>051-057-063-072>074-240900-
SOUTHWEST AND SOUTH CENTRAL SOUTH DAKOTA

CITY           SKY/WX    TMP DP  RH WIND       PRES   REMARKS
RAPID CTY ARPT CLOUDY    23  21  92 NW13      29.72S FOG     WCI  11
PIERRE         CLOUDY    28  26  92 NE10      29.74F WCI  19
CUSTER         CLOUDY    22  19  89 CALM      29.58S
ELLSWORTH AFB  FOG       23  23 100 NW9       29.71  VSB 5/8 WCI  13
PHILIP         CLOUDY    27  27 100 N9        29.75R FOG     WCI  18
PINE RIDGE     CLOUDY    25  25 100 N13       29.67S FOG     WCI  14
SPEARFISH      FOG       21  19  93 NW7       29.72S VSB 1/2 WCI  13
WINNER         CLOUDY    31  29  92 E8        29.71F WCI  23
$$

SDZ004>011-016>023-039-040-240900-
NORTHEAST SOUTH DAKOTA

CITY           SKY/WX    TMP DP  RH WIND       PRES   REMARKS
ABERDEEN       CLOUDY    28  26  92 NE6       29.83S FOG     WCI  22
WATERTOWN      CLOUDY    29  27  92 CALM      29.80S
BROOKINGS      CLOUDY    29  28  96 S7        29.79S WCI  22
SISSETON         N/A     31  30  96 CALM      29.84S
$$

SDZ017-020-022-023-036>040-048>070-240900-
SOUTHEAST SOUTH DAKOTA

CITY           SKY/WX    TMP DP  RH WIND       PRES   REMARKS
SIOUX FALLS    CLOUDY    32  30  92 E6        29.80S WCI  26
HURON          CLOUDY    31  29  92 E7        29.80S WCI  24
CHAMBERLAIN    CLOUDY    32  31  98 E7        29.74F FOG     WCI  25
MITCHELL       CLOUDY    32  30  92 E8        29.79S WCI  25
YANKTON        CLOUDY    30  27  86 SE9       29.78R WCI  22
$$

ABBREVIATIONS USED IN REMARKS
   TC - TEMPERATURE IN CELSIUS
  WCI - WIND CHILL INDEX
   HX - HEAT INDEX
  VSB - VISIBILITY




USA.gov is the U.S. government's official web portal to all federal, state and local government web resources and services.